Location: Fort Wayne
(41.1310°N, 85.1290°W)
Time: 13:20:29
(UTC-05:00)

IDEFIX/ARIANE 42P - Visible Passes

Search period start: 22 January 2018 00:00
Search period end: 01 February 2018 00:00
Orbit: 786 x 802 km, 98.2° (Epoch: 18 January)

Date Brightness Start Highest point End Pass type
(mag) Time Alt. Az. Time Alt. Az. Time Alt. Az.
22 Jan 3.1 05:39:25 10° NNE 05:44:39 59° E 05:49:49 10° S visible
22 Jan 3.9 07:20:11 10° NNW 07:23:45 19° WNW 07:27:20 10° WSW visible
22 Jan 5.9 18:41:30 10° WSW 18:43:12 11° W 18:44:55 10° WNW visible
23 Jan 4.2 05:11:29 10° NNE 05:16:12 32° E 05:20:51 10° SSE visible
23 Jan 3.2 06:51:06 10° N 06:55:43 32° WNW 07:00:20 10° SW visible
23 Jan 5.4 18:10:34 10° SW 18:14:32 22° W 18:18:33 10° NW visible
24 Jan 5.1 04:44:07 10° NE 04:47:37 18° E 04:51:06 10° SE visible
24 Jan 2.6 06:22:24 10° N 06:27:34 57° WNW 06:32:42 10° SSW visible
25 Jan 2.6 05:53:59 10° NNE 05:59:18 81° ESE 06:04:34 10° S visible
26 Jan 3.7 05:25:52 10° NNE 05:30:55 44° E 05:35:54 10° S visible
26 Jan 3.6 07:06:04 10° NNW 07:10:13 24° WNW 07:14:20 10° WSW visible
26 Jan 5.6 18:26:15 10° SW 18:29:20 16° W 18:32:27 10° NW visible
27 Jan 4.7 04:58:08 10° NE 05:02:24 24° E 05:06:37 10° SSE visible
27 Jan 2.9 06:37:11 10° N 06:42:07 41° WNW 06:47:01 10° SW visible
28 Jan 5.5 04:31:20 10° ENE 04:33:46 13° E 04:36:12 10° ESE visible
28 Jan 2.5 06:08:38 10° N 06:13:55 75° WNW 06:19:09 10° SSW visible
29 Jan 3.0 05:40:21 10° NNE 05:45:35 61° E 05:50:47 10° S visible
29 Jan 3.9 07:21:12 10° NNW 07:24:40 18° WNW 07:28:08 10° WSW visible
29 Jan 6.0 18:42:47 10° WSW 18:44:09 11° W 18:45:32 10° WNW visible
30 Jan 4.2 05:12:23 10° NNE 05:17:09 33° E 05:21:51 10° SSE visible
30 Jan 3.3 06:52:04 10° N 06:56:39 31° WNW 07:01:11 10° SW visible
31 Jan 5.1 04:44:57 10° NE 04:48:35 19° E 04:52:10 10° SE visible
31 Jan 2.6 06:23:21 10° N 06:28:30 54° WNW 06:33:36 10° SSW visible
